Location: Molino di Ancona
(43.6167°N, 13.3667°E)
Time: 01:35:40
(UTC+00:00)

Cosmos 1110 Rocket - Pass Details

Date: 15 December 2019
Orbit: 752 x 781 km, 74.0° (Epoch: 22 January)

Event Time Altitude Azimuth Distance (km) Brightness Sun altitude
Rises 04:21:35 0° 197° (SSW) 3,199 7.2 -22.8°
Reaches altitude 10° 04:23:56 10° 197° (SSW) 2,275 6.4 -22.4°
Maximum altitude 04:29:06 87° 109° (ESE) 761 3.9 -21.5°
Drops below altitude 10° 04:34:17 10° 21° (NNE) 2,284 6.5 -20.5°
Sets 04:36:39 0° 21° (NNE) 3,213 7.3 -20.1°
